Location: Pensacola
(30.4142°N, 87.2155°W)
Time: 18:46:50
(UTC-05:00)

NANOSAT C BR1 - Pass Details

Date: 09 August 2024
Orbit: 544 x 550 km, 98.1° (Epoch: 12 September)

Event Time Altitude Azimuth Distance (km) Brightness Sun altitude
Rises 04:22:26 0° 24° (NNE) 2,749 ? -22.0°
Reaches altitude 10° 04:24:45 10° 35° (NE) 1,850 ? -21.6°
Maximum altitude 04:28:19 31° 98° (E) 998 ? -20.9°
Enters shadow 04:31:43 11° 160° (SSE) 1,780 ? -20.3°
